Regional Weather Roundup
Issued by NWS Goodland, KS

Home | Current Version | Previous Version | Text Only | Print | Product List | Glossary Off
Versions: 1 2 3 4 5 6 7 8 9 10 11 12 13 14 15 16 17 18 19 20 21 22 23 24 25 26 27 28 29 30 31 32 33 34 35 36 37 38 39 40 41 42 43 44 45 46 47 48 49 50

000
ASUS43 KGLD 211659
RWRGLD

GOODLAND FORECAST AREA HOURLY WEATHER ROUNDUP
NATIONAL WEATHER SERVICE GOODLAND KS
1100 AM MDT SUN SEP 21 2014

...OFFICIAL OBSERVATIONS...

CITY           SKY/WX    TMP DP  RH WIND       PRES   REMARKS
GOODLAND KS    PTSUNNY   67  38  34 E12       30.39S
HILL CITY KS   SUNNY     75  41  29 N8        30.33R
IMPERIAL NEB   PTSUNNY   69  34  27 E8        30.37F
MCCOOK NEB     MOSUNNY   72  38  29 NE8G16    30.35S
AKRON CO       MOSUNNY   67  40  37 SE15G22   30.39F
BURLINGTON CO  PTSUNNY   68  35  29 SE12      30.40S
LIMON CO       CLOUDY    65  38  36 SE18      30.43S
$$

...UNOFFICIAL OBSERVATIONS...

CITY           SKY/WX    TMP DP  RH WIND       PRES   REMARKS
COLBY KS       SUNNY     70  43  37 SE3       30.38S
GOVE KS          N/A     71  32  23 MISG        N/A
NORTON KS      MOSUNNY   73  30  20 N10       30.33R
SHARON SPRINGS   N/A     71  40  32 E8G16       N/A
WAKEENEY KS      N/A     75  40  28 MISG        N/A
TRENTON NEB      N/A     69  32  25 NE8         N/A
KIT CARSON CO    N/A     65  39  38 N5G12       N/A
YUMA CO          N/A     65  40  39 E10         N/A
$$


USA.gov is the U.S. government's official web portal to all federal, state and local government web resources and services.